TimeEDT,TemperatureF,Dew PointF,Humidity,Sea Level PressureIn,VisibilityMPH,Wind Direction,Wind SpeedMPH,Gust SpeedMPH,PrecipitationIn,Events,Conditions,WindDirDegrees,DateUTC
12:51 AM,55.9,46.0,69,29.92,10.0,WNW,3.5,-,N/A,,Overcast,300,2013-09-14 04:51:00
1:51 AM,54.0,45.0,72,29.93,10.0,West,5.8,-,N/A,,Partly Cloudy,280,2013-09-14 05:51:00
2:51 AM,55.9,45.0,67,29.94,10.0,NW,11.5,17.3,N/A,,Overcast,320,2013-09-14 06:51:00
3:51 AM,55.9,44.1,64,29.94,10.0,NW,4.6,-,N/A,,Overcast,320,2013-09-14 07:51:00
4:51 AM,55.0,45.0,69,29.94,10.0,NW,4.6,-,N/A,,Overcast,310,2013-09-14 08:51:00
5:51 AM,54.0,46.9,77,29.97,10.0,North,3.5,-,N/A,,Overcast,350,2013-09-14 09:51:00
6:51 AM,52.0,46.0,80,29.99,10.0,NNW,4.6,-,N/A,,Partly Cloudy,330,2013-09-14 10:51:00
7:51 AM,55.0,46.0,72,30.01,10.0,NNW,3.5,-,N/A,,Clear,330,2013-09-14 11:51:00
8:51 AM,57.0,45.0,64,30.02,10.0,NNW,5.8,-,N/A,,Scattered Clouds,330,2013-09-14 12:51:00
9:51 AM,55.9,44.1,64,30.05,10.0,NNW,11.5,-,N/A,,Overcast,340,2013-09-14 13:51:00
10:51 AM,57.9,44.1,60,30.05,10.0,NW,12.7,-,N/A,,Mostly Cloudy,320,2013-09-14 14:51:00
11:51 AM,60.1,45.0,57,30.06,10.0,North,13.8,-,N/A,,Overcast,350,2013-09-14 15:51:00
12:51 PM,61.0,45.0,56,30.06,10.0,NNW,12.7,19.6,N/A,,Overcast,340,2013-09-14 16:51:00
1:51 PM,59.0,45.0,60,30.06,10.0,NNW,13.8,-,N/A,,Overcast,330,2013-09-14 17:51:00
2:51 PM,59.0,46.0,62,30.06,10.0,NNW,10.4,-,N/A,,Overcast,340,2013-09-14 18:51:00
3:51 PM,59.0,46.0,62,30.06,10.0,North,9.2,-,N/A,,Overcast,10,2013-09-14 19:51:00
4:51 PM,59.0,45.0,60,30.09,10.0,NNW,10.4,-,N/A,,Overcast,340,2013-09-14 20:51:00
5:51 PM,57.9,45.0,62,30.10,10.0,North,9.2,-,N/A,,Overcast,350,2013-09-14 21:51:00
6:51 PM,55.9,44.1,64,30.12,10.0,North,8.1,-,N/A,,Overcast,350,2013-09-14 22:51:00
7:51 PM,53.1,42.1,66,30.13,10.0,NW,3.5,-,N/A,,Clear,310,2013-09-14 23:51:00
8:51 PM,48.9,43.0,80,30.15,10.0,Calm,Calm,-,N/A,,Clear,0,2013-09-15 00:51:00
9:51 PM,48.0,42.1,80,30.14,10.0,Calm,Calm,-,N/A,,Clear,0,2013-09-15 01:51:00
10:51 PM,46.0,43.0,89,30.16,10.0,Calm,Calm,-,N/A,,Clear,0,2013-09-15 02:51:00
11:51 PM,46.0,43.0,89,30.17,10.0,Calm,Calm,-,N/A,,Clear,0,2013-09-15 03:51:00